TimeCDT,TemperatureF,Dew PointF,Humidity,Sea Level PressureIn,VisibilityMPH,Wind Direction,Wind SpeedMPH,Gust SpeedMPH,PrecipitationIn,Events,Conditions,WindDirDegrees,DateUTC
12:52 AM,57.0,42.1,57,30.26,10.0,Calm,Calm,-,N/A,,Partly Cloudy,0,2013-05-24 05:52:00
1:52 AM,57.0,42.1,57,30.24,10.0,East,15.0,-,N/A,,Clear,90,2013-05-24 06:52:00
2:52 AM,55.0,43.0,64,30.25,10.0,East,10.4,-,N/A,,Clear,100,2013-05-24 07:52:00
3:52 AM,54.0,42.1,64,30.24,10.0,East,13.8,-,N/A,,Clear,100,2013-05-24 08:52:00
4:52 AM,53.1,42.1,66,30.25,10.0,East,13.8,18.4,N/A,,Partly Cloudy,100,2013-05-24 09:52:00
5:52 AM,52.0,42.1,69,30.27,10.0,SE,10.4,-,N/A,,Partly Cloudy,140,2013-05-24 10:52:00
6:52 AM,53.1,43.0,69,30.29,10.0,SSE,8.1,-,N/A,,Scattered Clouds,150,2013-05-24 11:52:00
7:52 AM,55.9,44.1,64,30.30,10.0,SSE,10.4,-,N/A,,Scattered Clouds,160,2013-05-24 12:52:00
8:52 AM,57.9,46.0,65,30.30,10.0,SSE,10.4,-,N/A,,Mostly Cloudy,150,2013-05-24 13:52:00
9:52 AM,63.0,48.0,58,30.27,10.0,SSE,11.5,-,N/A,,Scattered Clouds,150,2013-05-24 14:52:00
10:52 AM,66.9,46.0,47,30.25,10.0,SSE,20.7,28.8,N/A,,Scattered Clouds,150,2013-05-24 15:52:00
11:52 AM,68.0,48.0,49,30.23,10.0,SSE,18.4,26.5,N/A,,Scattered Clouds,160,2013-05-24 16:52:00
12:52 PM,71.1,48.9,45,30.23,10.0,South,20.7,27.6,N/A,,Mostly Cloudy,180,2013-05-24 17:52:00
1:52 PM,72.0,48.0,43,30.21,10.0,South,19.6,29.9,N/A,,Mostly Cloudy,180,2013-05-24 18:52:00
2:52 PM,72.0,46.9,41,30.19,10.0,South,17.3,24.2,N/A,,Overcast,190,2013-05-24 19:52:00
3:52 PM,72.0,46.9,41,30.15,10.0,SSE,19.6,28.8,N/A,,Overcast,150,2013-05-24 20:52:00
4:52 PM,72.0,46.9,41,30.11,10.0,SSE,21.9,29.9,N/A,,Overcast,150,2013-05-24 21:52:00
5:52 PM,72.0,48.0,43,30.08,10.0,SSE,16.1,23.0,0.00,,Overcast,150,2013-05-24 22:52:00
6:52 PM,72.0,46.9,41,30.05,10.0,SSE,20.7,26.5,N/A,,Overcast,150,2013-05-24 23:52:00
7:52 PM,71.1,46.9,42,30.04,10.0,SE,20.7,-,N/A,,Overcast,140,2013-05-25 00:52:00
8:52 PM,69.1,46.0,44,30.04,10.0,SE,18.4,-,N/A,,Overcast,140,2013-05-25 01:52:00
9:52 PM,69.1,45.0,42,30.13,10.0,SSE,11.5,-,N/A,,Overcast,150,2013-05-25 02:52:00
10:52 PM,68.0,45.0,43,30.14,10.0,SE,15.0,-,0.00,,Overcast,130,2013-05-25 03:52:00
11:52 PM,66.0,45.0,47,30.12,10.0,SE,13.8,-,N/A,,Overcast,130,2013-05-25 04:52:00